Find Kosmos-2371

NORAD ID: 26394 Int'l Des: 2000-036 Owner: VKSR Country: RU operational
HEOCIRCULARGSO

Live Position

Loading 3D Globe...

About Kosmos-2371

Description loading...

Upcoming Passes

Passes for default location (London). Set your location on the main map for personalized predictions.

Altitude History

Loading altitude history...

Two-Line Element Set

1 26394U 00036A 26104.72228256 -.00000062 00000-0 00000+0 0 9998
2 26394 13.9586 7.9851 0001344 190.9199 334.9168 1.00266563 94408
Epoch: Apr 14, 2026 • Age: 9 hours

Current Status

Altitude 35792.4 km
Velocity 3.07 km/s
Sub-Earth Point -10.92°S, 71.75°E
Launch Date Jul 4, 2000
Age 25.7 years
Type other

Technical Details

Classification Payload
Mass 2100.00 kg
Dry Mass 2000.00 kg
Total Mass 2100.00 kg
Length 5.50 m
Diameter 2.50 m
Span 9.00 m
Shape Cyl + 2 Pan
Manufacturer NPOPMR
Bus Type Geizer
Phase Status In Orbit
Owner/State VKSR/RU

Most Searched